Terminal Aerodrome Forecast
Issued by NWS Charleston, WV

Home | Current Version | Previous Version | Text Only | Print | Product List | Glossary On
Versions: 1 2 3 4 5 6 7 8 9 10 11 12 13 14 15 16 17 18 19 20 21 22 23 24 25 26 27 28
000
FTUS41 KRLX 280201 AAA
TAFHTS
TAF AMD
KHTS 280201Z 2802/2824 24003KT 2SM TSRA BKN025 OVC040CB
      TEMPO 2803/2805 4SM SHRA BKN020
     FM280500 24004KT 4SM SHRA OVC030
     FM280800 VRB03KT 5SM SHRA OVC020
     FM281100 25005KT P6SM OVC025
     FM281800 32008KT P6SM BKN035=

USA.gov is the U.S. government's official web portal to all federal, state and local government web resources and services.